Le nostre stazioni meteo in Italia

Pubblicità
Il mio iltempo24.it
Ferrara, Italia (16138): Temperatura & dewpoint: 17.01.2019 05:00:00 - 23.01.2019 05:00:00 (CET)Ferrara, Italia (16138): velocità del vento: 17.01.2019 05:00:00 - 23.01.2019 05:00:00 (CET)Ferrara, Italia (16138): direzione del vento: 17.01.2019 05:00:00 - 23.01.2019 05:00:00 (CET)Ferrara, Italia (16138): reduced air pressure: 17.01.2019 05:00:00 - 23.01.2019 05:00:00 (CET)Ferrara, Italia (16138): visibility: 17.01.2019 05:00:00 - 23.01.2019 05:00:00 (CET)
Data & Tempo tt [°C] td [°C] ff [km/h] ff [kn] dd ppp [hPa] vv [km]
23.01.2019 05:00:00 - - - - - - -
23.01.2019 04:00:00 - - - - - - -
23.01.2019 03:00:00 - - - - - - -
23.01.2019 02:00:00 - - - - - - -
23.01.2019 01:00:00 - - - - - - -
23.01.2019 00:00:00 - - - - - - -
22.01.2019 23:00:00 - - - - - - -
22.01.2019 22:00:00 - - - - - - -
22.01.2019 21:00:00 - - - - - - -
22.01.2019 20:00:00 - - - - - - -
22.01.2019 19:00:00 3,2 -0,6 11 6 SO 1004,9 10
22.01.2019 18:00:00 4,0 -1,0 11 6 O - 10
22.01.2019 17:00:00 4,0 -2,0 9 5 O - 10
22.01.2019 16:00:00 5,0 -1,4 5 3 NE 1006,1 10
22.01.2019 15:00:00 5,0 -1,0 8 4 NE - 10
22.01.2019 14:00:00 5,0 -1,0 8 4 NNE - 10
22.01.2019 13:00:00 5,4 -0,9 11 6 NNE 1008,5 10
22.01.2019 12:00:00 4,0 -2,0 13 7 N - 10
22.01.2019 11:00:00 3,0 -2,0 15 8 N - 10
22.01.2019 10:00:00 0,2 -3,0 9 5 NO 1011,0 8
22.01.2019 09:00:00 0,0 -3,0 9 5 ONO - 8
22.01.2019 08:00:00 -1,0 -4,0 - - - - 8
22.01.2019 07:00:00 0,2 -3,7 5 3 ONO 1011,5 10
22.01.2019 06:00:00 - - - - - - -
22.01.2019 05:00:00 - - - - - - -
22.01.2019 04:00:00 - - - - - - -
22.01.2019 03:00:00 - - - - - - -
22.01.2019 02:00:00 - - - - - - -
22.01.2019 01:00:00 - - - - - - -
22.01.2019 00:00:00 - - - - - - -
21.01.2019 23:00:00 - - - - - - -
21.01.2019 22:00:00 - - - - - - -
21.01.2019 21:00:00 - - - - - - -
21.01.2019 20:00:00 - - - - - - -
21.01.2019 19:00:00 3,8 0,3 8 4 ONO 1016,4 7
21.01.2019 18:00:00 4,0 0,0 5 3 ONO - 7
21.01.2019 17:00:00 5,0 0,0 5 3 ONO - 7
21.01.2019 16:00:00 5,0 0,4 4 2 ONO 1016,9 7
21.01.2019 15:00:00 5,0 1,0 8 4 ONO - 6
21.01.2019 14:00:00 5,0 1,0 8 4 NO - 6
21.01.2019 13:00:00 4,6 0,9 5 3 NNO 1017,8 6
21.01.2019 12:00:00 3,0 1,0 5 3 ENE - 6
21.01.2019 11:00:00 2,0 0,0 8 4 O - 6
21.01.2019 10:00:00 1,4 -0,2 5 3 ONO 1018,0 8
21.01.2019 09:00:00 0,0 0,0 5 3 O - 6
21.01.2019 08:00:00 0,0 -1,0 4 2 ONO - 6
21.01.2019 07:00:00 0,0 -0,7 0 0 N 1017,1 10
21.01.2019 06:00:00 - - - - - - -
21.01.2019 05:00:00 - - - - - - -
21.01.2019 04:00:00 - - - - - - -
21.01.2019 03:00:00 - - - - - - -
21.01.2019 02:00:00 - - - - - - -
21.01.2019 01:00:00 - - - - - - -
21.01.2019 00:00:00 - - - - - - -
20.01.2019 23:00:00 - - - - - - -
20.01.2019 22:00:00 - - - - - - -
20.01.2019 21:00:00 - - - - - - -
20.01.2019 20:00:00 - - - - - - -
20.01.2019 19:00:00 2,0 -0,9 0 0 N 1015,9 10
20.01.2019 18:00:00 3,0 -1,0 - - - - 10
20.01.2019 17:00:00 5,0 0,0 2 1 SSE - 10
20.01.2019 16:00:00 5,0 -0,4 2 1 S 1015,4 10
20.01.2019 15:00:00 5,0 -1,0 4 2 SSE - 8
20.01.2019 14:00:00 5,0 0,0 2 1 E - 7
20.01.2019 13:00:00 4,2 -1,0 4 2 SSE 1016,2 7
20.01.2019 12:00:00 3,0 -2,0 4 2 NE - 7
20.01.2019 11:00:00 3,0 -1,0 2 1 NE - 7
20.01.2019 10:00:00 2,2 -0,7 4 2 NNE 1015,9 7
20.01.2019 09:00:00 1,0 0,0 0 0 N - 7
20.01.2019 08:00:00 0,0 -1,0 2 1 SE - 7
20.01.2019 07:00:00 0,2 -0,6 0 0 N 1005,1 10
20.01.2019 06:00:00 - - - - - - -
20.01.2019 05:00:00 - - - - - - -
20.01.2019 04:00:00 - - - - - - -
20.01.2019 03:00:00 - - - - - - -
20.01.2019 02:00:00 - - - - - - -
20.01.2019 01:00:00 - - - - - - -
20.01.2019 00:00:00 - - - - - - -
19.01.2019 23:00:00 - - - - - - -
19.01.2019 22:00:00 - - - - - - -
19.01.2019 21:00:00 - - - - - - -
19.01.2019 20:00:00 - - - - - - -
19.01.2019 19:00:00 4,2 0,2 5 3 N 1016,0 20
19.01.2019 18:00:00 5,0 0,0 5 3 N - 10
19.01.2019 17:00:00 6,0 1,0 5 3 NE - 10
19.01.2019 16:00:00 5,8 1,0 11 6 NE 1016,2 20
19.01.2019 15:00:00 6,0 2,0 11 6 NE - 10
19.01.2019 14:00:00 6,0 2,0 9 5 NNE - 10
19.01.2019 13:00:00 6,0 1,7 11 6 NNE 1016,9 20
19.01.2019 12:00:00 5,0 1,0 15 8 NNE - 10
19.01.2019 11:00:00 4,0 0,0 13 7 NNE - 10
19.01.2019 10:00:00 3,6 0,1 13 7 NNE 1017,1 20
19.01.2019 09:00:00 3,0 0,0 11 6 NNE - 10
19.01.2019 08:00:00 3,0 0,0 11 6 NNE - 8
19.01.2019 07:00:00 3,2 0,2 9 5 NNE 1016,4 8
19.01.2019 06:00:00 - - - - - - -
19.01.2019 05:00:00 - - - - - - -
19.01.2019 04:00:00 - - - - - - -
19.01.2019 03:00:00 - - - - - - -
19.01.2019 02:00:00 - - - - - - -
19.01.2019 01:00:00 - - - - - - -
19.01.2019 00:00:00 - - - - - - -
18.01.2019 23:00:00 - - - - - - -
18.01.2019 22:00:00 - - - - - - -
18.01.2019 21:00:00 - - - - - - -
18.01.2019 20:00:00 - - - - - - -
18.01.2019 19:00:00 6,6 4,4 0 0 N 1015,0 12
18.01.2019 18:00:00 7,0 4,0 - - - - 10
18.01.2019 17:00:00 7,0 5,0 - - - - 10
18.01.2019 16:00:00 7,2 4,7 11 6 NE 1014,0 10
18.01.2019 15:00:00 7,0 5,0 9 5 NE - 6
18.01.2019 14:00:00 7,0 5,0 4 2 NE - 2,8
18.01.2019 13:00:00 6,4 4,9 0 0 N 1013,2 2,8
18.01.2019 12:00:00 6,0 5,0 8 4 NNE - 4,0
18.01.2019 11:00:00 6,0 5,0 4 2 NNO - 4,0
18.01.2019 10:00:00 5,0 4,6 8 4 O 1012,1 2,0
18.01.2019 09:00:00 5,0 4,0 5 3 O - 2,0
18.01.2019 08:00:00 5,0 4,0 0 0 N - 2,5
18.01.2019 07:00:00 4,6 4,3 5 3 SO 1010,2 4,0
18.01.2019 06:00:00 - - - - - - -
18.01.2019 05:00:00 - - - - - - -
18.01.2019 04:00:00 - - - - - - -
18.01.2019 03:00:00 - - - - - - -
18.01.2019 02:00:00 - - - - - - -
18.01.2019 01:00:00 - - - - - - -
18.01.2019 00:00:00 - - - - - - -
17.01.2019 23:00:00 - - - - - - -
17.01.2019 22:00:00 - - - - - - -
17.01.2019 21:00:00 - - - - - - -
17.01.2019 20:00:00 - - - - - - -
17.01.2019 19:00:00 7,0 4,8 9 5 NE 1011,5 30
17.01.2019 18:00:00 8,0 5,0 - - - - 10
17.01.2019 17:00:00 9,0 6,0 - - - - 10
17.01.2019 16:00:00 11,8 7,7 0 0 N 1012,0 20
17.01.2019 15:00:00 13,0 8,0 9 5 NNE - 10
17.01.2019 14:00:00 12,0 8,0 9 5 NE - 10
17.01.2019 13:00:00 9,6 6,0 8 4 NNE 1013,9 15
17.01.2019 12:00:00 8,0 5,0 5 3 NE - 10
17.01.2019 11:00:00 7,0 4,0 5 3 NNE - 10
17.01.2019 10:00:00 5,0 3,5 4 2 NE 1015,3 12
17.01.2019 09:00:00 4,0 3,0 5 3 ENE - 8
17.01.2019 08:00:00 4,0 3,0 0 0 N - 10
17.01.2019 07:00:00 -1,2 -2,2 5 3 NE 1015,9 15
17.01.2019 06:00:00 - - - - - - -
17.01.2019 05:00:00 - - - - - - -

tt = Temperatura
td = dewpoint
ff = velocità del vento
dd = direzione del vento
ppp = reduced air pressure
vv = visibility

Stazioni seguenti

WeatherPro
AMSI
MeteoEarth